Location: Unspecified
(45.6669°N, 0.0000°E)
Time: 22:36:22
(UTC+00:00)

ISS - Pass Details

Date: 24 May 2019
Orbit: 408 x 418 km, 51.6° (Epoch: 18 June)

Event Time Altitude Azimuth Distance (km) Brightness Sun altitude
Rises 23:46:41 0° 298° (WNW) 2,364 0.5 -23.4°
Reaches altitude 10° 23:48:47 10° 300° (WNW) 1,500 -0.6 -23.4°
Enters shadow 23:50:34 29° 304° (NW) 805 -2.1 -23.5°
